[[{"header":{"parameterUnit":"m.s-1","parameterCategory":1,"la1":30.2991,"la2":30.254,"lo1":-89.0895,"lo2":-89.0444,"dy":0.0017,"dx":0.0017,"nx":28,"ny":28,"refTime":"2025-07-28T03:00:00:Z","depth":0,"parameterNumber":2,"parameterNumberName":"U-component_of_WINDS"},"data":[0,0,0,0,0,0,0,0,0,0,0,0,0,0,0,0,0,0,0,0,0,0,0,0,0,0,0,0,0,0,0,0,0,0,0,0,0,0,0,0,0,0,0,0,0,0,0,0,0,0,0,0,0,0,0,0,0,0,1.6922,1.6922,0,1.6948,1.6948,1.6948,1.692,1.6919,1.6918,1.6917,1.6946,1.6948,1.6949,0,0,0,0,0,0,0,0,0,0,0,0,0,1.6852,1.6853,1.6922,1.6922,1.6922,1.6947,1.6948,1.6948,1.692,1.6919,1.6918,1.6916,1.6945,1.6948,1.695,0,0,0,0,0,0,0,0,0,0,0,0,0,1.688,1.6854,1.6922,1.6911,1.6911,1.6947,1.6948,1.6948,1.692,1.6919,1.6917,1.6916,1.6945,1.6947,1.695,1.6999,0,0,1.6958,1.6959,0,0,0,0,0,0,0,0,1.6879,1.6883,1.6913,1.6912,1.6912,1.6929,1.6934,1.6965,1.6921,1.6917,1.6917,1.6915,1.6942,1.6945,1.6953,1.7,1.7001,1.6958,1.696,1.6961,1.6962,0,0,0,0,0,0,0,1.6877,1.6882,1.6932,1.6913,1.6912,1.6907,1.6909,1.694,1.6938,1.6917,1.6915,1.6918,1.6941,1.6951,1.6954,1.7002,1.6958,1.6961,1.6962,1.6963,1.7092,1.7094,0,0,0,0,0,0,1.6876,1.688,1.6931,1.6933,1.6891,1.6909,1.6912,1.6925,1.6938,1.6938,1.692,1.6917,1.6947,1.695,1.6954,1.7013,1.6961,1.6964,1.6965,1.709,1.7092,1.7094,0,0,0,0,0,0,1.6874,1.688,1.693,1.6906,1.6912,1.6912,1.6927,1.6926,1.6936,1.694,1.694,1.6929,1.6946,1.6951,1.6988,1.7014,1.6965,1.6967,1.7088,1.7091,1.7093,1.7131,0,0,0,0,0,0,1.6872,1.688,1.6898,1.6907,1.6913,1.6963,1.6929,1.6928,1.694,1.6937,1.6949,1.6949,1.6945,1.6984,1.6991,1.7017,1.6969,1.7086,1.7089,1.7092,1.7128,1.7135,1.7141,0,0,0,0,0,1.687,1.6908,1.6899,1.6905,1.6935,1.6964,1.6968,1.6961,1.6942,1.6961,1.6963,1.6949,1.701,1.6988,1.6995,1.7023,1.7084,1.7088,1.7092,1.7125,1.7134,1.7141,0,0,0,0,0,0,1.6903,1.6909,1.6899,1.6941,1.6952,1.6959,1.6982,1.6971,1.6988,1.6985,1.6976,1.698,1.7019,1.7025,1.7,1.7071,1.7044,1.705,1.7067,1.7075,1.7082,1.708,1.6972,0,0,0,0,0,1.6915,1.6937,1.6941,1.6978,1.6984,1.6982,1.6994,1.6988,1.7,1.7005,1.701,1.7023,1.7046,1.706,1.7081,1.7128,1.7131,1.7151,1.7157,1.7163,1.7168,1.7195,1.7204,1.7108,1.7108,1.7108,0,0,1.6941,1.6946,1.6961,1.6985,1.6993,1.7017,1.6986,1.7013,1.7031,1.7009,1.7045,1.705,1.7064,1.7106,1.7126,1.7112,1.7195,1.7168,1.7172,1.7175,1.72,1.7209,1.7217,1.711,1.711,1.711,0,0,1.6999,1.7005,1.7037,1.7046,1.7058,1.7057,1.7064,1.7073,1.7075,1.7111,1.7095,1.7117,1.7155,1.7166,1.7177,1.724,1.7228,1.7247,1.7283,1.7309,1.7316,1.7323,1.7347,1.7356,1.7252,1.7252,1.7253,0,1.703,1.7064,1.7055,1.7083,1.7094,1.7075,1.7107,1.7116,1.7135,1.7144,1.7129,1.7177,1.7185,1.723,1.7246,1.7255,1.7264,1.7246,1.7316,1.7323,1.7329,1.7351,1.736,1.7255,1.7255,1.7254,1.7254,0,1.7101,1.7126,1.715,1.7168,1.7182,1.7212,1.7208,1.7224,1.7217,1.7218,1.7255,1.7264,1.7286,1.7296,1.729,1.7342,1.7333,1.7317,1.7289,1.734,1.7362,1.737,1.7258,1.7257,1.7257,1.7256,0,0,1.7182,1.7194,1.7204,1.7212,1.7224,1.7244,1.7273,1.7294,1.7309,1.7322,1.7348,1.7381,1.7366,1.7378,1.7373,1.7396,1.7447,1.7377,1.7377,1.739,1.7506,1.7519,1.7529,1.7438,1.744,1.7441,1.7505,0,1.7242,1.7292,1.7285,1.7334,1.7357,1.7339,1.7366,1.7377,1.7378,1.7399,1.7401,1.7425,1.7403,1.741,1.7432,1.7436,1.747,1.7431,1.7464,1.7465,1.7462,1.754,1.7554,1.7613,1.7513,1.7515,1.7516,0,1.7318,1.7334,1.7386,1.7395,1.7404,1.7428,1.7447,1.7467,1.7479,1.7479,1.7493,1.7483,1.7515,1.7486,1.753,1.7503,1.7516,1.752,1.7522,1.7526,1.7494,1.7547,1.7632,1.7642,1.7529,1.7527,1.7527,0,1.7374,1.7408,1.7443,1.7451,1.7462,1.7479,1.7485,1.7496,1.751,1.7527,1.7536,1.7557,1.7569,1.7586,1.7583,1.7562,1.7628,1.7599,1.763,1.763,1.7645,1.7645,1.7735,1.7652,1.7652,1.7652,1.7651,0,1.7442,1.7474,1.7468,1.749,1.7526,1.7518,1.7554,1.7558,1.7568,1.7591,1.7577,1.76,1.7594,1.7617,1.7615,1.7652,1.7657,1.7659,1.7658,1.7661,1.7661,1.767,1.7666,1.7654,1.7653,1.7653,1.7653,0,1.751,1.7507,1.7544,1.7552,1.7555,1.7581,1.7589,1.761,1.761,1.764,1.7646,1.7648,1.7674,1.7672,1.7702,1.77,1.7747,1.7741,1.7742,1.7741,1.7773,1.7771,1.7874,1.7887,1.7794,1.7795,1.7796,0,1.7554,1.7579,1.7589,1.7603,1.761,1.7632,1.7646,1.7639,1.7654,1.7671,1.769,1.7715,1.7734,1.7776,1.7781,1.7804,1.7799,1.7833,1.7802,1.7804,1.7801,1.78,1.7803,1.784,1.7841,1.7842,1.7842,0,1.7634,1.7631,1.765,1.767,1.7686,1.7701,1.7715,1.7727,1.7722,1.774,1.7766,1.778,1.781,1.7835,1.7857,1.7865,1.7854,1.7852,1.7861,1.7864,1.7865,1.7866,1.776,1.785,1.7849,1.7849,1.7848,1.7848,1.7692,1.7713,1.7724,1.7746,1.7755,1.7769,1.7789,1.7792,1.7813,1.7836,1.7831,1.7861,1.7874,1.7902,1.7911,1.7935,1.7923,1.7935,1.7939,1.7942,1.7946,1.786,1.7939,1.7939,1.7939,1.7938,1.7938,0,1.7772,1.7777,1.7798,1.7817,1.7835,1.7821,1.7836,1.7853,1.7878,1.7891,1.791,1.794,1.7965,1.7971,1.7994,1.8013,1.8008,1.8019,1.8019,1.8021,1.7955,1.7946,1.8022,1.8022,1.8022,1.8022,1.8022,1.8022,1.7815,1.7851,1.7849,1.789,1.7896,1.7924,1.7933,1.7946,1.7956,1.799,1.801,1.8013,1.8024,1.8048,1.807,1.8072,1.8082,1.8095,1.8095,1.8034,1.8025,1.8017,1.8008,1.8097,1.8097,1.8159,1.8159,1.816]},{"header":{"parameterUnit":"m.s-1","parameterCategory":1,"la1":30.2991,"la2":30.254,"lo1":-89.0895,"lo2":-89.0444,"dy":0.0017,"dx":0.0017,"nx":28,"ny":28,"refTime":"2025-07-28T03:00:00:Z","depth":0,"parameterNumber":3,"parameterNumberName":"V-component_of_WINDS"},"data":[0,0,0,0,0,0,0,0,0,0,0,0,0,0,0,0,0,0,0,0,0,0,0,0,0,0,0,0,0,0,0,0,0,0,0,0,0,0,0,0,0,0,0,0,0,0,0,0,0,0,0,0,0,0,0,0,0,0,-1.8229,-1.823,0,-1.8267,-1.8267,-1.8268,-1.8262,-1.8261,-1.826,-1.826,-1.8299,-1.8301,-1.8302,0,0,0,0,0,0,0,0,0,0,0,0,0,-1.8153,-1.8155,-1.8229,-1.823,-1.823,-1.8267,-1.8267,-1.8268,-1.8262,-1.8261,-1.826,-1.8259,-1.8299,-1.8301,-1.8303,0,0,0,0,0,0,0,0,0,0,0,0,0,-1.8188,-1.8155,-1.8229,-1.8232,-1.8232,-1.8267,-1.8267,-1.8268,-1.8262,-1.8261,-1.826,-1.8259,-1.8298,-1.83,-1.8303,-1.8338,0,0,-1.831,-1.8311,0,0,0,0,0,0,0,0,-1.8186,-1.8191,-1.8231,-1.8232,-1.8232,-1.8259,-1.8255,-1.8291,-1.8262,-1.8251,-1.826,-1.8259,-1.8286,-1.829,-1.8299,-1.8339,-1.8341,-1.8311,-1.8312,-1.8313,-1.8314,0,0,0,0,0,0,0,-1.8184,-1.8189,-1.8244,-1.8231,-1.8232,-1.8231,-1.8235,-1.8262,-1.8274,-1.8252,-1.8251,-1.8256,-1.8287,-1.8297,-1.83,-1.8342,-1.8311,-1.8313,-1.8314,-1.8315,-1.8412,-1.8414,0,0,0,0,0,0,-1.8181,-1.8187,-1.8243,-1.8245,-1.8206,-1.8233,-1.8238,-1.8251,-1.8273,-1.8276,-1.8257,-1.8255,-1.8293,-1.8297,-1.8301,-1.8343,-1.8313,-1.8315,-1.8317,-1.8411,-1.8413,-1.8414,0,0,0,0,0,0,-1.8179,-1.8186,-1.8242,-1.8216,-1.8223,-1.8236,-1.8251,-1.8252,-1.8262,-1.8277,-1.8279,-1.8264,-1.8292,-1.8298,-1.8329,-1.8345,-1.8317,-1.8319,-1.841,-1.8412,-1.8413,-1.8428,0,0,0,0,0,0,-1.8177,-1.8185,-1.8198,-1.8217,-1.8225,-1.8268,-1.8252,-1.8254,-1.8266,-1.8265,-1.8285,-1.8287,-1.8292,-1.8325,-1.8331,-1.8348,-1.8321,-1.8409,-1.8411,-1.8413,-1.8426,-1.843,-1.8433,0,0,0,0,0,-1.8174,-1.8201,-1.8199,-1.8206,-1.8241,-1.8269,-1.8273,-1.8278,-1.8268,-1.8281,-1.8291,-1.8287,-1.8342,-1.8328,-1.8335,-1.8352,-1.8408,-1.841,-1.8413,-1.8424,-1.8429,-1.8433,0,0,0,0,0,0,-1.8185,-1.8204,-1.8201,-1.8235,-1.825,-1.8268,-1.8285,-1.8283,-1.8301,-1.83,-1.8305,-1.8309,-1.834,-1.8349,-1.8334,-1.8387,-1.8373,-1.8377,-1.838,-1.8385,-1.8388,-1.8385,-1.8323,0,0,0,0,0,-1.8191,-1.8211,-1.8227,-1.8255,-1.8263,-1.8272,-1.8285,-1.8287,-1.8303,-1.8309,-1.8321,-1.8337,-1.8358,-1.8372,-1.8392,-1.8427,-1.8432,-1.8443,-1.8446,-1.8449,-1.8453,-1.8472,-1.8477,-1.8422,-1.8422,-1.8422,0,0,-1.8204,-1.8217,-1.8229,-1.8257,-1.8269,-1.8291,-1.8278,-1.8301,-1.8317,-1.8313,-1.8343,-1.8352,-1.837,-1.8403,-1.8419,-1.8412,-1.8469,-1.8452,-1.8454,-1.8456,-1.8475,-1.848,-1.8485,-1.8424,-1.8423,-1.8423,0,0,-1.8238,-1.825,-1.8275,-1.8287,-1.8305,-1.8312,-1.8318,-1.8336,-1.8341,-1.8371,-1.8368,-1.8388,-1.8424,-1.8437,-1.8448,-1.8488,-1.8485,-1.8494,-1.8513,-1.8532,-1.8536,-1.854,-1.8554,-1.8559,-1.8498,-1.8498,-1.8498,0,-1.8252,-1.8284,-1.8288,-1.8311,-1.8323,-1.8321,-1.8346,-1.8358,-1.8382,-1.8391,-1.8383,-1.8428,-1.844,-1.8476,-1.8486,-1.8495,-1.8502,-1.8492,-1.8535,-1.8539,-1.8543,-1.8556,-1.8561,-1.8499,-1.8499,-1.8499,-1.8498,0,-1.83,-1.8322,-1.834,-1.8363,-1.8377,-1.8401,-1.8409,-1.8424,-1.8424,-1.8432,-1.8462,-1.8477,-1.8499,-1.8508,-1.851,-1.8545,-1.854,-1.8534,-1.852,-1.8549,-1.8561,-1.8567,-1.85,-1.85,-1.85,-1.8499,0,0,-1.8342,-1.8367,-1.8373,-1.8384,-1.8404,-1.8421,-1.8445,-1.8467,-1.8479,-1.8496,-1.8517,-1.8547,-1.8541,-1.8554,-1.8557,-1.8574,-1.8604,-1.8565,-1.8566,-1.8572,-1.8644,-1.8648,-1.8654,-1.8602,-1.8603,-1.8604,-1.8642,0,-1.8378,-1.8421,-1.8425,-1.8463,-1.8483,-1.8481,-1.8502,-1.8516,-1.8524,-1.8543,-1.8551,-1.8572,-1.8563,-1.8571,-1.8587,-1.8597,-1.8618,-1.8594,-1.8621,-1.8622,-1.8617,-1.8661,-1.8666,-1.8701,-1.8647,-1.8648,-1.8648,0,-1.8426,-1.8444,-1.8484,-1.8501,-1.851,-1.8529,-1.8549,-1.8567,-1.8584,-1.8588,-1.8603,-1.8603,-1.8628,-1.8614,-1.8648,-1.8632,-1.8643,-1.865,-1.8651,-1.8654,-1.8637,-1.8665,-1.8712,-1.8718,-1.8656,-1.8656,-1.8655,0,-1.8453,-1.8487,-1.8515,-1.8524,-1.8545,-1.8558,-1.8567,-1.8583,-1.8596,-1.8614,-1.8623,-1.8644,-1.8655,-1.8672,-1.8678,-1.8667,-1.8713,-1.8698,-1.8717,-1.8717,-1.8727,-1.8726,-1.8777,-1.8734,-1.8734,-1.8734,-1.8734,0,-1.8493,-1.8518,-1.8527,-1.8545,-1.8572,-1.8577,-1.8604,-1.8612,-1.8627,-1.8646,-1.8645,-1.8663,-1.867,-1.869,-1.8695,-1.8723,-1.8728,-1.8733,-1.8734,-1.8733,-1.8732,-1.874,-1.8738,-1.8736,-1.8735,-1.8735,-1.8735,0,-1.8528,-1.8535,-1.8565,-1.8582,-1.8587,-1.8607,-1.8621,-1.8638,-1.8645,-1.867,-1.8676,-1.8687,-1.871,-1.8718,-1.8746,-1.8749,-1.8782,-1.8781,-1.8776,-1.8776,-1.8794,-1.8792,-1.8852,-1.886,-1.8812,-1.8813,-1.8813,0,-1.8553,-1.8571,-1.859,-1.8603,-1.8612,-1.8633,-1.8646,-1.8651,-1.8665,-1.8686,-1.87,-1.8723,-1.8741,-1.8777,-1.8788,-1.881,-1.8809,-1.8829,-1.8813,-1.8811,-1.881,-1.8808,-1.881,-1.8832,-1.8832,-1.8833,-1.8833,0,-1.8596,-1.8599,-1.8618,-1.8638,-1.8654,-1.867,-1.8685,-1.8696,-1.8704,-1.8719,-1.8742,-1.8757,-1.8785,-1.8807,-1.8829,-1.8839,-1.8838,-1.8838,-1.8843,-1.8843,-1.8839,-1.8841,-1.8784,-1.8837,-1.8836,-1.8836,-1.8836,-1.8836,-1.8627,-1.8643,-1.8659,-1.868,-1.8692,-1.8707,-1.8724,-1.8733,-1.8752,-1.8775,-1.8777,-1.8802,-1.8818,-1.8847,-1.8858,-1.8878,-1.8873,-1.8881,-1.8883,-1.8884,-1.8886,-1.8836,-1.8882,-1.8882,-1.8882,-1.8882,-1.8882,0,-1.8671,-1.8681,-1.87,-1.8721,-1.8738,-1.8735,-1.8752,-1.8766,-1.8788,-1.8803,-1.8821,-1.8847,-1.8869,-1.8882,-1.8904,-1.8917,-1.8917,-1.8923,-1.8922,-1.8924,-1.8889,-1.8882,-1.8922,-1.8922,-1.8922,-1.8922,-1.8922,-1.8922,-1.8695,-1.8723,-1.8727,-1.8761,-1.8771,-1.8795,-1.8805,-1.8819,-1.8831,-1.886,-1.8878,-1.8886,-1.8901,-1.8923,-1.8943,-1.8946,-1.8955,-1.8961,-1.8964,-1.8931,-1.8927,-1.8923,-1.8916,-1.8963,-1.8963,-1.8997,-1.8997,-1.8997]}]]